Weather History for KSHR - January, 2014

Change the Weather History Date:

Thursday, January 16, 2014

  Actual Average Record
Temperature  
Mean Temperature 30 °F 24 °F  
Max Temperature 36 °F 36 °F 64 °F (1974)
Min Temperature 23 °F 12 °F -35 °F (1930)
Degree Days  
Heating Degree Days 35 41  
Month to date heating degree days 632 665  
Since 1 July heating degree days 3852 3848  
Cooling Degree Days 0 0  
Month to date cooling degree days 0 0  
Year to date cooling degree days 0 0  
Moisture  
Dew Point 19 °F    
Average Humidity 61    
Maximum Humidity 75    
Minimum Humidity 47    
Precipitation  
Precipitation T in 0.02 in 0.26 in (1920)
Month to date precipitation 0.42 0.27  
Year to date precipitation 0.42 0.27  
Sea Level Pressure  
Sea Level Pressure 30.34 in    
Wind  
Wind Speed 15 mph (NW)    
Max Wind Speed 37 mph    
Max Gust Speed 45 mph    
Visibility 10 miles    
Events      
T = Trace of Precipitation, MM = Missing Value Source: NWS Daily Summary

Daily Weather History Graph

Daily Weather History Graph

Search for Another Location

Airport or City:

Trip Planner

Search our weather history database for the weather conditions in past years. The results will help you decide how hot, cold, wet, or windy it might be!

Date:

Astronomy

Jan. 16, 2014 Rise Set
Actual Time 7:41 AM MST 4:54 PM MST
Civil Twilight 7:08 AM MST 5:27 PM MST
Nautical Twilight 6:32 AM MST 6:03 PM MST
Astronomical Twilight 5:57 AM MST 6:38 PM MST
Moon 5:53 PM MST (1/16) 7:32 AM MST (1/16)
Length of Visible Light 10h 18m
Length of Day
9h 13m
Full, 100% of the Moon is Illuminated
Jan 16
Full
Jan 23
Last Quarter
Jan 30
New
Feb 6
First Quarter
Feb 14
Full

Hourly Weather History & Observations

Time (MST) Temp. Windchill Dew Point Humidity Pressure Visibility Wind Dir Wind Speed Gust Speed Precip Events Conditions
12:53 AM 34.0 °F 21.3 °F 19.9 °F 56% 30.26 in 10.0 mi NW 25.3 mph - 0.00 in   Overcast
1:53 AM 34.0 °F 20.1 °F 19.9 °F 56% 30.29 in 10.0 mi NW 31.1 mph 38.0 mph N/A   Overcast
2:53 AM 34.0 °F 21.8 °F 24.1 °F 67% 30.27 in 10.0 mi WNW 23.0 mph 28.8 mph N/A   Overcast
3:53 AM 34.0 °F 21.5 °F 18.0 °F 52% 30.28 in 10.0 mi WNW 24.2 mph 39.1 mph N/A   Overcast
4:53 AM 34.0 °F 20.8 °F 16.0 °F 48% 30.29 in 10.0 mi NW 27.6 mph 43.7 mph N/A   Overcast
5:53 AM 34.0 °F 21.8 °F 17.1 °F 50% 30.30 in 10.0 mi NW 23.0 mph - N/A   Overcast
6:53 AM 33.1 °F 20.1 °F 16.0 °F 50% 30.32 in 10.0 mi NW 25.3 mph 31.1 mph N/A   Mostly Cloudy
7:53 AM 32.0 °F 19.5 °F 16.0 °F 52% 30.35 in 10.0 mi NW 21.9 mph - N/A   Mostly Cloudy
8:53 AM 32.0 °F 20.5 °F 16.0 °F 52% 30.38 in 10.0 mi NW 18.4 mph - N/A   Scattered Clouds
9:53 AM 32.0 °F 21.2 °F 17.1 °F 54% 30.41 in 10.0 mi NNW 16.1 mph - N/A   Scattered Clouds
10:53 AM 33.1 °F 21.2 °F 17.1 °F 52% 30.42 in 10.0 mi NNW 20.7 mph - N/A   Partly Cloudy
11:53 AM 33.1 °F 21.2 °F 17.1 °F 52% 30.40 in 10.0 mi NNW 20.7 mph - N/A   Mostly Cloudy
12:53 PM 35.1 °F 23.8 °F 19.0 °F 52% 30.37 in 10.0 mi NW 20.7 mph - N/A   Overcast
1:53 PM 34.0 °F 25.5 °F 19.9 °F 56% 30.38 in 10.0 mi NNW 11.5 mph - N/A   Overcast
2:53 PM 34.0 °F 31.0 °F 21.0 °F 59% 30.38 in 10.0 mi North 3.5 mph - N/A   Overcast
3:53 PM 34.0 °F - 21.0 °F 59% 30.38 in 10.0 mi Calm Calm - N/A   Overcast
4:53 PM 32.0 °F 24.8 °F 21.9 °F 66% 30.37 in 10.0 mi West 8.1 mph - N/A   Overcast
5:53 PM 32.0 °F 24.8 °F 19.9 °F 61% 30.38 in 10.0 mi West 8.1 mph - N/A   Mostly Cloudy
6:53 PM 30.0 °F 23.2 °F 21.0 °F 69% 30.36 in 10.0 mi WNW 6.9 mph - N/A   Scattered Clouds
7:53 PM 28.9 °F - 19.0 °F 67% 30.35 in 10.0 mi Calm Calm - N/A   Clear
8:53 PM 26.1 °F 18.4 °F 19.0 °F 75% 30.35 in 10.0 mi WSW 6.9 mph - N/A   Clear
9:53 PM 26.1 °F 20.5 °F 19.0 °F 75% 30.34 in 10.0 mi WSW 4.6 mph - N/A   Clear
10:53 PM 24.1 °F - 18.0 °F 77% 30.30 in 10.0 mi Calm Calm - N/A   Partly Cloudy
11:53 PM 23.0 °F - 18.0 °F 81% 30.29 in 10.0 mi Calm Calm - N/A   Clear